Location: Minneapolis
(44.9800°N, 93.2640°W)
Time: 15:49:23
(UTC-05:00)

Iridium 96 - Visible Passes

Search period start: 25 September 2016 00:00
Search period end: 05 October 2016 00:00
Orbit: 777 x 778 km, 86.4° (Epoch: 25 September)

Date Brightness Start Highest point End Pass type
(mag) Time Alt. Az. Time Alt. Az. Time Alt. Az.
25 Sep 7.5 04:46:48 10° SE 04:51:11 28° E 04:55:36 10° NNE visible
25 Sep 6.1 06:26:56 10° SSW 06:31:45 37° W 06:36:35 10° NNW visible
26 Sep 8.3 04:14:50 10° ESE 04:17:58 16° ENE 04:21:08 10° NE visible
26 Sep 5.5 05:52:55 10° SSW 05:58:06 66° W 06:03:19 10° N visible
27 Sep 5.8 05:19:23 10° S 05:24:34 71° E 05:29:47 10° N visible
28 Sep 6.8 04:46:21 10° SSE 04:51:10 39° E 04:56:01 10° NNE visible
28 Sep 6.5 06:27:38 10° SW 06:32:00 27° WNW 06:36:24 10° NNW visible
29 Sep 7.8 04:13:53 10° SE 04:17:53 23° E 04:21:53 10° NNE visible
29 Sep 5.8 05:53:17 10° SSW 05:58:17 46° W 06:03:19 10° N visible
30 Sep 8.4 03:42:26 10° E 03:44:44 13° ENE 03:47:01 10° NE visible
30 Sep 5.4 05:19:27 10° S 05:24:40 82° W 05:29:56 10° N visible
01 Oct 6.1 04:46:24 12° SSE 04:51:11 56° E 04:56:18 10° NNE visible
01 Oct 6.8 06:28:37 10° WSW 06:32:19 19° WNW 06:36:01 10° NNW visible
02 Oct 7.1 04:14:14 15° SE 04:17:50 32° E 04:22:25 10° NNE visible
02 Oct 6.2 05:54:47 15° SW 05:58:29 33° WNW 06:03:11 10° NNW visible
03 Oct 8.0 03:41:51 13° ESE 03:44:36 18° ENE 03:48:06 10° NE visible
03 Oct 5.5 05:22:24 30° SSW 05:24:48 58° W 05:29:59 10° N visible
04 Oct 8.5 03:11:25 10° ENE 03:11:30 10° ENE 03:11:34 10° ENE visible
04 Oct 5.5 04:49:52 50° SSE 04:51:15 80° E 04:56:30 10° N visible
04 Oct 7.2 06:30:24 11° W 06:32:40 14° WNW 06:35:17 10° NW visible
